Location: Bégole
(43.1574°N, 0.3291°E)
Time: 22:26:34
(UTC+00:00)

DMSP 5D-3 F17 - Visible Passes

Search period start: 26 February 2024 00:00
Search period end: 07 March 2024 00:00
Orbit: 838 x 851 km, 98.7° (Epoch: 26 February)

Date Brightness Start Highest point End Pass type
(mag) Time Alt. Az. Time Alt. Az. Time Alt. Az.
26 Feb 8.0 05:33:14 10° NE 05:37:28 22° E 05:41:40 10° SE visible
26 Feb 7.6 18:40:29 10° SSW 18:45:03 27° W 18:49:42 10° NW visible
27 Feb 8.4 05:20:09 10° NE 05:23:37 17° E 05:27:04 10° SE visible
27 Feb 7.1 18:26:17 10° SSW 18:31:16 35° W 18:36:18 10° NNW visible
28 Feb 8.6 05:07:30 10° ENE 05:09:45 12° E 05:11:58 10° ESE visible
28 Feb 6.5 18:12:15 10° S 18:17:30 47° W 18:22:48 10° NNW visible
01 Mar 8.8 19:30:52 10° W 19:31:27 10° W 19:32:01 10° W visible
02 Mar 8.4 19:14:43 10° WSW 19:17:33 14° W 19:20:23 10° WNW visible
03 Mar 7.4 05:51:10 10° NNE 05:56:04 32° E 06:00:54 10° SSE visible
03 Mar 8.2 18:59:53 10° SW 19:03:40 19° W 19:07:29 10° NW visible
04 Mar 7.9 05:37:49 10° NE 05:42:15 24° E 05:46:38 10° SSE visible
04 Mar 7.8 18:45:25 10° SSW 18:49:50 25° W 18:54:19 10° NW visible
05 Mar 8.3 05:24:39 10° NE 05:28:24 19° E 05:32:09 10° SE visible
05 Mar 7.3 18:31:10 10° SSW 18:36:02 32° W 18:40:57 10° NNW visible
06 Mar 8.5 05:11:47 10° ENE 05:14:32 14° E 05:17:17 10° ESE visible
06 Mar 6.7 18:17:04 10° S 18:22:15 42° W 18:27:28 10° NNW visible
